Pasco, WA
on Monday, December 3, 2012

Monday
Previous Day Next Day
Daily Summary
 ActualAverageRecord
Temperature
Mean Temperature °F 35°F  
Max Temperature 58°F 42°F 67°F (2007)
Min Temperature 44°F 28°F 16°F (2011)
Degree Days
Heating Degree Days 14 30  
Month to date heating degree days 43 88  
Since 1 July heating degree days 1140 1317  
Cooling Degree Days 0 0  
Month to date cooling degree days 0 0  
Year to date cooling degree days 788 710  
Moisture
Dew Point 36°F   
Average Humidity 62    
Maximum Humidity 76    
Minimum Humidity 47    
Precipitation
Precipitation T in 0.03 in 0.22 in (1982)
Month to date precipitation 0.20 0.09  
Year to date precipitation 8.76 7.71  
Snow
Snow 0.00 in in in ()
Snow Depth 0.00 in   
Wind
Wind Speed 10 mph   
Max Wind Speed 21 mph   
Max Gust Speed 24 mph   
Visibility 10 miles   
Events     

Key: T is trace of precipitation, MM is missing value
Source: NWS Daily Summary
Time(PST)TemperatureDew PointHumidity Pressure Visibility Wind DirectionWind SpeedGust SpeedPrecipitationEvents Conditions
12:53 AM 50.0°F 34.0°F 54% 29.88 in 10.0 miles SSW 10.4 mph - N/A   Clear
1:53 AM 50.0°F 33.1°F 52% 29.90 in 10.0 miles SSW 17.3 mph - N/A   Overcast
2:53 AM 50.0°F 33.1°F 52% 29.92 in 10.0 miles SW 12.7 mph - N/A   Scattered Clouds
3:53 AM 48.9°F 35.1°F 59% 29.94 in 10.0 miles SW 8.1 mph - 0.00 in   Overcast
4:53 AM 48.9°F 35.1°F 59% 29.96 in 10.0 miles WSW 10.4 mph - N/A   Partly Cloudy
5:53 AM 46.9°F 37.0°F 68% 29.98 in 10.0 miles SSW 12.7 mph - N/A   Partly Cloudy
7:53 AM 48.9°F 37.0°F 64% 30.00 in 10.0 miles SSW 9.2 mph - N/A   Overcast
8:53 AM 51.1°F 35.1°F 54% 30.03 in 10.0 miles SSW 12.7 mph 16.1 mph N/A   Overcast
9:53 AM 52.0°F 36.0°F 54% 30.04 in 10.0 miles SW 8.1 mph - N/A   Overcast
11:53 AM 55.9°F 35.1°F 45% 30.04 in 10.0 miles SW 10.4 mph - N/A   Overcast
12:53 PM 55.9°F 36.0°F 47% 30.04 in 10.0 miles SW 9.2 mph - N/A   Overcast
1:53 PM 55.9°F 37.0°F 49% 30.04 in 10.0 miles West 4.6 mph - N/A   Overcast
2:53 PM 55.9°F 37.9°F 51% 30.04 in 10.0 miles WSW 6.9 mph - N/A   Mostly Cloudy
3:53 PM 53.1°F 39.0°F 59% 30.05 in 10.0 miles SW 6.9 mph - N/A   Partly Cloudy
4:53 PM 52.0°F 39.0°F 61% 30.04 in 10.0 miles SSW 6.9 mph - N/A   Overcast
5:53 PM 50.0°F 37.9°F 63% 30.03 in 10.0 miles Calm Calm - N/A   Overcast
6:53 PM 46.0°F 39.0°F 76% 30.02 in 10.0 miles East 8.1 mph - N/A   Clear
7:53 PM 46.0°F 37.0°F 71% 29.99 in 10.0 miles ESE 5.8 mph - N/A   Scattered Clouds
8:53 PM 44.1°F 37.0°F 76% 29.96 in 10.0 miles Calm Calm - N/A   Scattered Clouds
9:53 PM 46.0°F 37.0°F 71% 29.93 in 10.0 miles East 9.2 mph - N/A   Clear
10:53 PM 46.9°F 37.0°F 68% 29.87 in 10.0 miles East 8.1 mph - N/A   Clear
11:53 PM 50.0°F 36.0°F 59% 29.83 in 10.0 miles SE 8.1 mph - N/A   Partly Cloudy
Moon Phase
Dec. 03 Dec. 06 Dec. 13 Dec. 20 Dec. 28
Sunrise:07:21 AM (PST) Moon Rise:09:12 PM (PST)12/3
Sunset:04:11 PM (PST) Moon Set:10:39 AM (PST)12/3

Copyright © 2014 The Weather Underground, Inc.